Date String (YYYY-MM-DD hh:mm:ss) UTC,Instrument flags,Ambient pressure (hPa),Sample flow (lpm),Bypass flow (lpm),Sample temperature (°C),Ambient temperature (°C),ASC tube jacket temperature (°C),LED temperature (°C),Box temperature (°C),Sample RH (%),Span deviation,Mass concentration (μg/m³),Mass concentration (μg/m³),Mass concentration (μg/m³)
DateTimeUTC,F1_M11,P_M11,Q1_M11,Q2_M11,T1_M11,T2_M11,T3_M11,T4_M11,T5_M11,U1_M11,ZSPAN_M11,X0_M11,X2_M11,X1_M11
2022-09-14 02:00:00,,0822.4,5.00,0.00,29.9,26.1,00.0,38.5,31.6,15.4,0000.2,0027.23,0012.70,0011.32
2022-09-14 02:01:00,,0822.4,5.01,0.00,29.8,26.4,00.0,38.5,31.4,15.5,0000.2,0026.76,0012.73,0011.30
2022-09-14 02:02:00,,0822.4,5.00,0.00,29.7,26.8,00.0,38.4,31.4,15.9,0000.1,0026.20,0012.68,0011.26
2022-09-14 02:03:00,,0822.4,5.01,0.00,29.7,27.1,00.0,38.4,31.4,16.5,0000.2,0025.81,0012.65,0011.23
2022-09-14 02:04:00,,0822.4,4.99,0.00,29.6,27.5,00.0,38.4,31.4,16.8,-000.3,0025.73,0012.60,0011.21
2022-09-14 02:05:00,,0822.4,5.01,0.00,29.6,27.7,00.0,38.4,31.4,15.9,-000.1,0024.72,0012.51,0011.18
2022-09-14 02:06:00,,0822.5,4.99,0.00,29.6,27.9,00.0,38.4,31.4,15.7,0000.4,0023.76,0012.44,0011.12
2022-09-14 02:07:00,,0822.5,4.99,0.00,29.7,28.1,00.0,38.4,31.5,15.2,0000.5,0024.84,0012.42,0011.11
2022-09-14 02:08:00,,0822.4,5.02,0.00,29.7,28.2,00.0,38.4,31.5,15.7,0000.8,0024.78,0012.38,0011.11
2022-09-14 02:09:00,,0822.4,5.00,0.00,29.7,28.4,00.0,38.4,31.6,16.2,0001.3,0025.22,0012.36,0011.10
2022-09-14 02:10:00,,0822.4,5.00,0.00,29.7,28.5,00.0,38.4,31.6,15.9,0001.5,0024.62,0012.34,0011.07
2022-09-14 02:11:00,,0822.4,5.00,0.00,29.7,28.5,00.0,38.4,31.7,15.7,0001.7,0023.71,0012.32,0011.05
2022-09-14 02:12:00,,0822.4,5.01,0.00,29.8,28.6,00.0,38.5,31.7,15.7,0001.7,0023.67,0012.25,0011.03
2022-09-14 02:13:00,,0822.5,5.00,0.00,29.8,28.7,00.0,38.5,31.7,15.0,0002.1,0023.74,0012.20,0011.02
2022-09-14 02:14:00,,0822.5,5.00,0.00,29.8,28.7,00.0,38.5,31.8,15.0,0001.8,0024.31,0012.23,0011.02
2022-09-14 02:15:00,,0822.6,5.00,0.00,29.9,28.8,00.0,38.5,31.8,15.1,0001.9,0024.17,0012.26,0011.01
2022-09-14 02:16:00,,0822.6,5.00,0.00,29.9,28.9,00.0,38.6,31.9,15.5,0002.0,0024.51,0012.23,0010.99
2022-09-14 02:17:00,,0822.6,5.00,0.00,29.9,28.9,00.0,38.6,31.9,15.2,0001.9,0024.14,0012.17,0011.01
2022-09-14 02:18:00,,0822.6,5.01,0.00,30.0,28.9,00.0,38.6,31.9,15.1,0001.6,0022.63,0012.14,0011.02
2022-09-14 02:19:00,,0822.5,4.98,0.00,30.0,29.0,00.0,38.6,32.0,14.5,0001.7,0022.98,0012.16,0011.02
2022-09-14 02:20:00,,0822.6,5.00,0.00,30.0,29.0,00.0,38.7,32.0,14.7,0001.1,0022.43,0012.14,0011.02
2022-09-14 02:21:00,,0822.5,5.00,0.00,30.1,29.1,00.0,38.7,32.0,14.7,0000.6,0022.44,0012.14,0011.02
2022-09-14 02:22:00,,0822.6,5.00,0.00,30.1,28.4,00.0,38.7,32.0,14.7,0000.8,0022.59,0012.19,0011.02
2022-09-14 02:23:00,,0822.6,5.00,0.00,30.1,27.2,00.0,38.7,31.9,14.8,0001.3,0022.69,0012.24,0011.06
2022-09-14 02:24:00,,0822.5,5.00,0.00,30.0,27.0,00.0,38.6,31.8,14.9,0001.0,0022.47,0012.29,0011.10
2022-09-14 02:25:00,,0822.6,5.00,0.00,29.9,27.1,00.0,38.6,31.6,15.1,0001.1,0022.12,0012.29,0011.14
2022-09-14 02:26:00,,0822.6,5.00,0.00,29.9,27.4,00.0,38.6,31.6,15.1,0001.4,0021.59,0012.24,0011.17
2022-09-14 02:27:00,,0822.6,4.98,0.00,29.9,27.6,00.0,38.6,31.6,15.1,0001.6,0021.40,0012.29,0011.22
2022-09-14 02:28:00,,0822.6,5.01,0.00,29.8,27.9,00.0,38.6,31.6,15.1,0001.6,0022.86,0012.35,0011.26
2022-09-14 02:29:00,,0822.5,4.99,0.00,29.8,28.1,00.0,38.6,31.6,15.1,0001.7,0022.86,0012.40,0011.29
2022-09-14 02:30:00,,0822.6,4.99,0.00,29.8,28.2,00.0,38.6,31.7,15.3,0001.7,0022.60,0012.48,0011.34
2022-09-14 02:31:00,,0822.6,5.02,0.00,29.9,28.4,00.0,38.6,31.7,15.3,0001.9,0021.67,0012.54,0011.38
2022-09-14 02:32:00,,0822.6,4.99,0.00,29.9,28.5,00.0,38.6,31.7,15.3,0001.8,0021.37,0012.56,0011.41
2022-09-14 02:33:00,,0822.6,4.99,0.00,29.9,28.6,00.0,38.6,31.7,15.1,0001.8,0021.19,0012.56,0011.46
2022-09-14 02:34:00,,0822.6,5.00,0.00,29.9,28.6,00.0,38.6,31.8,15.1,0002.0,0020.98,0012.51,0011.47
2022-09-14 02:35:00,,0822.6,5.02,0.00,29.9,28.7,00.0,38.7,31.8,15.1,0002.1,0020.97,0012.52,0011.48
2022-09-14 02:36:00,,0822.6,4.99,0.00,30.0,28.8,00.0,38.7,31.9,15.1,0002.1,0020.82,0012.53,0011.48
2022-09-14 02:37:00,,0822.6,4.99,0.00,30.0,28.8,00.0,38.7,31.9,15.1,0001.8,0020.88,0012.57,0011.47
2022-09-14 02:38:00,,0822.6,5.00,0.00,30.0,28.9,00.0,38.7,31.9,15.1,0001.4,0022.19,0012.58,0011.48
2022-09-14 02:39:00,,0822.7,5.01,0.00,30.1,28.9,00.0,38.7,32.0,15.0,0000.9,0021.39,0012.63,0011.49
2022-09-14 02:40:00,,0822.6,4.99,0.00,30.1,29.0,00.0,38.8,32.0,14.9,0001.2,0021.66,0012.63,0011.49
2022-09-14 02:41:00,,0822.6,4.99,0.00,30.1,29.0,00.0,38.8,32.0,14.7,0001.4,0021.99,0012.60,0011.48
2022-09-14 02:42:00,,0822.6,5.00,0.00,30.1,29.0,00.0,38.8,32.0,14.4,0001.6,0022.60,0012.58,0011.49
2022-09-14 02:43:00,,0822.6,5.00,0.00,30.1,28.0,00.0,38.8,32.0,14.2,0001.9,0023.53,0012.63,0011.51
2022-09-14 02:44:00,,0822.7,5.00,0.00,30.1,27.0,00.0,38.8,31.9,13.9,0001.8,0023.73,0012.70,0011.54
2022-09-14 02:45:00,,0822.6,5.00,0.00,30.1,26.9,00.0,38.7,31.9,13.7,0001.1,0023.40,0012.80,0011.59
2022-09-14 02:46:00,,0822.6,5.00,0.00,30.0,27.1,00.0,38.7,31.7,13.7,0001.0,0023.96,0012.83,0011.63
2022-09-14 02:47:00,,0822.6,5.00,0.00,29.9,27.4,00.0,38.7,31.6,14.0,0001.0,0024.84,0012.88,0011.65
2022-09-14 02:48:00,,0822.6,5.01,0.00,29.9,27.7,00.0,38.7,31.6,14.3,0001.4,0025.38,0012.91,0011.66
2022-09-14 02:49:00,,0822.6,4.99,0.00,29.9,27.9,00.0,38.7,31.7,14.8,0001.8,0024.03,0012.95,0011.67
2022-09-14 02:50:00,,0822.6,5.01,0.00,29.9,28.1,00.0,38.7,31.7,14.9,0002.0,0024.12,0012.94,0011.68
2022-09-14 02:51:00,,0822.6,4.99,0.00,29.9,28.3,00.0,38.7,31.7,14.8,0001.6,0024.30,0012.95,0011.70
2022-09-14 02:52:00,,0822.6,5.00,0.00,29.9,28.4,00.0,38.7,31.7,14.7,0001.1,0024.88,0012.98,0011.68
2022-09-14 02:53:00,,0822.7,5.02,0.00,29.9,28.5,00.0,38.7,31.7,14.6,0001.1,0024.90,0012.97,0011.65
2022-09-14 02:54:00,,0822.6,4.99,0.00,29.9,28.6,00.0,38.7,31.8,14.6,0000.9,0024.26,0012.91,0011.58
2022-09-14 02:55:00,,0822.6,5.00,0.00,30.0,28.7,00.0,38.7,31.8,14.5,0001.0,0024.43,0012.82,0011.50
2022-09-14 02:56:00,,0822.6,5.01,0.00,30.0,28.7,00.0,38.7,31.9,14.4,0001.4,0024.26,0012.70,0011.38
2022-09-14 02:57:00,,0822.7,4.99,0.00,30.0,28.8,00.0,38.7,31.9,14.3,0001.7,0023.81,0012.63,0011.30
2022-09-14 02:58:00,,0822.7,5.00,0.00,30.0,28.8,00.0,38.7,31.9,14.5,0001.5,0022.94,0012.53,0011.23
2022-09-14 02:59:00,,0822.7,5.00,0.00,30.1,28.9,00.0,38.8,31.9,14.4,0001.4,0021.97,0012.44,0011.16
